Location: Unspecified
(58.9933°N, 5.6375°E)
Time: 05:35:38
(UTC+02:00)

Resurs 1-4 Rocket - Visible Passes

Search period start: 28 June 2016 00:00
Search period end: 08 July 2016 00:00
Orbit: 801 x 813 km, 98.4° (Epoch: 26 June)

Date Brightness Start Highest point End Pass type
(mag) Time Alt. Az. Time Alt. Az. Time Alt. Az.
28 Jun 4.7 02:41:07 10° ENE 02:42:51 11° ENE 02:44:35 10° E visible
01 Jul 4.4 03:06:06 10° NE 03:09:36 17° E 03:13:05 10° SE visible
02 Jul 4.7 02:42:40 10° ENE 02:44:37 12° ENE 02:46:32 10° E visible
05 Jul 4.4 03:07:46 10° NE 03:11:21 18° E 03:14:54 10° SE visible
06 Jul 4.6 02:44:14 10° NE 02:46:21 12° ENE 02:48:28 10° ESE visible
